GW3941 Weather Reports


Display with metric or nautical units.
time (UTC)temp
F
wind
direction
speed
MPH
gust
MPH
rain 1hr
in
rain 24hr
in
rain mn
in
humidity
%
barometer
mb
20260504151013 64 261 2.0 8.0 0.00 0.00 0.00 54 1013.6
20260504150513 63 17 2.0 8.0 0.00 0.00 0.00 54 1013.4
20260504141000 59 212 4.0 10.0 0.00 0.00 0.00 60 1013.7
20260504140600 59 134 3.0 8.0 0.00 0.00 0.00 60 1013.8
20260504130548 53 236 3.0 9.0 0.00 0.00 0.00 65 1014.4
20260504110531 45 219 2.0 6.0 0.00 0.00 0.00 69 1014.6
20260504100524 44 236 0.0 3.0 0.00 0.00 0.00 70 1014.4
20260504081534 45 273 0.0 3.0 0.00 0.00 0.00 68 1014.3
20260504081015 45 272 1.0 3.0 0.00 0.00 0.00 68 1014.3
20260504080514 45 272 1.0 3.0 0.00 0.00 0.00 68 1014.3
20260504050556 48 240 3.0 8.0 0.00 0.00 0.00 63 1014.0
20260504045554 48 229 2.0 8.0 0.00 0.00 0.00 62 1014.0
20260504045054 48 277 2.0 8.0 0.00 0.00 0.00 63 1014.0
20260504044554 48 234 2.0 5.0 0.00 0.00 0.00 63 1014.0
20260504044053 48 219 1.0 4.0 0.00 0.00 0.00 63 1014.0
20260504043551 48 219 2.0 6.0 0.00 0.00 0.00 62 1014.1
20260504043057 48 219 2.0 6.0 0.00 0.00 0.00 62 1014.0
20260504042550 48 196 2.0 7.0 0.00 0.00 0.00 62 1013.9
20260504042050 49 189 2.0 7.0 0.00 0.00 0.00 62 1013.9
20260504041549 49 244 2.0 7.0 0.00 0.00 0.00 61 1013.8
20260504041047 49 215 3.0 7.0 0.00 0.00 0.00 61 1013.7
20260504040547 49 218 2.0 6.0 0.00 0.00 0.00 61 1013.6
20260504040046 49 256 2.0 7.0 0.00 0.00 0.00 60 1013.6
20260504035546 49 274 3.0 6.0 0.00 0.00 0.00 60 1013.5
20260504035045 49 292 2.0 5.0 0.00 0.00 0.00 61 1013.5
20260504034548 49 279 2.0 5.0 0.00 0.00 0.00 60 1013.4
20260504034045 49 290 2.0 5.0 0.00 0.00 0.00 60 1013.4
20260504033550 49 296 2.0 5.0 0.00 0.00 0.00 60 1013.4
20260504033044 49 303 2.0 6.0 0.00 0.00 0.00 61 1013.3
20260504032544 49 311 2.0 6.0 0.00 0.00 0.00 60 1013.4
20260504032048 49 273 1.0 4.0 0.00 0.00 0.00 60 1013.4
20260504031544 49 271 2.0 4.0 0.00 0.00 0.00 60 1013.4
20260504031043 49 277 2.0 4.0 0.00 0.00 0.00 60 1013.4
20260504030544 49 277 1.0 7.0 0.00 0.00 0.00 60 1013.3
20260504030044 49 277 2.0 7.0 0.00 0.00 0.00 60 1013.3
20260504025544 49 256 1.0 4.0 0.00 0.00 0.00 59 1013.3
20260504025044 50 256 1.0 6.0 0.00 0.00 0.00 59 1013.3
20260504024545 50 256 2.0 6.0 0.00 0.00 0.00 59 1013.3
20260504024046 50 254 1.0 4.0 0.00 0.00 0.00 58 1013.3
20260504023543 50 256 1.0 4.0 0.00 0.00 0.00 58 1013.4
20260504023042 50 255 0.0 3.0 0.00 0.00 0.00 58 1013.3
20260504022542 51 254 0.0 4.0 0.00 0.00 0.00 58 1013.3
20260504022043 51 254 1.0 4.0 0.00 0.00 0.00 56 1013.4
20260504021542 51 256 1.0 4.0 0.00 0.00 0.00 56 1013.3
20260504021042 51 257 2.0 4.0 0.00 0.00 0.00 56 1013.4
20260504020545 51 257 1.0 4.0 0.00 0.00 0.00 56 1013.4
20260504020117 51 267 1.0 4.0 0.00 0.00 0.00 56 1013.4
20260504015542 51 267 1.0 3.0 0.00 0.00 0.00 56 1013.3
20260504015044 51 269 1.0 4.0 0.00 0.00 0.00 55 1013.3
20260504014557 51 269 1.0 4.0 0.00 0.00 0.00 55 1013.3
20260504014041 51 269 1.0 4.0 0.00 0.00 0.00 55 1013.3
20260504013541 51 269 1.0 6.0 0.00 0.00 0.00 55 1013.3
20260504013055 51 263 2.0 6.0 0.00 0.00 0.00 56 1013.1
20260504012541 51 263 1.0 4.0 0.00 0.00 0.00 56 1013.2
20260504012041 51 263 2.0 4.0 0.00 0.00 0.00 55 1013.1
20260504011540 52 261 1.0 3.0 0.00 0.00 0.00 55 1013.1
20260504011040 52 261 2.0 3.0 0.00 0.00 0.00 54 1013.0
20260504010540 52 286 1.0 4.0 0.00 0.00 0.00 55 1012.9
20260504010044 52 288 1.0 4.0 0.00 0.00 0.00 54 1012.9
20260504005540 52 291 1.0 4.0 0.00 0.00 0.00 53 1012.8
20260504005042 52 292 1.0 3.0 0.00 0.00 0.00 53 1012.8
20260504004602 52 292 1.0 4.0 0.00 0.00 0.00 54 1012.8
20260504004040 52 295 1.0 4.0 0.00 0.00 0.00 53 1012.6
20260504003538 52 296 2.0 4.0 0.00 0.00 0.00 53 1012.6
20260504003045 52 303 2.0 3.0 0.00 0.00 0.00 53 1012.5
20260504002538 52 304 1.0 4.0 0.00 0.00 0.00 53 1012.4
20260504002039 52 303 1.0 4.0 0.00 0.00 0.00 53 1012.3
20260504001603 53 303 1.0 4.0 0.00 0.00 0.00 52 1012.3
20260504001039 53 286 1.0 3.0 0.00 0.00 0.00 52 1012.2
20260504000540 53 286 1.0 3.0 0.00 0.00 0.00 51 1012.2
20260504000041 53 286 1.0 3.0 0.00 0.00 0.00 50 1012.2
20260503235538 54 286 1.0 3.0 0.00 0.00 0.00 50 1012.1
20260503235038 54 286 1.0 3.0 0.00 0.00 0.00 49 1012.1
20260503234638 54 286 1.0 3.0 0.00 0.00 0.00 49 1012.1
20260503234039 55 286 1.0 3.0 0.00 0.00 0.00 49 1012.0
20260503233536 55 286 2.0 4.0 0.00 0.00 0.00 48 1012.0
20260503233041 55 286 1.0 8.0 0.00 0.00 0.00 49 1011.9
20260503232536 55 287 3.0 8.0 0.00 0.00 0.00 48 1011.9
20260503232038 55 285 2.0 8.0 0.00 0.00 0.00 47 1011.9
20260503231537 56 266 2.0 9.0 0.00 0.00 0.00 46 1011.9
20260503231037 56 268 2.0 9.0 0.00 0.00 0.00 47 1011.8
20260503230537 56 282 3.0 11.0 0.00 0.00 0.00 46 1011.9
20260503230043 56 283 4.0 11.0 0.00 0.00 0.00 46 1011.7
20260503225536 57 261 2.0 7.0 0.00 0.00 0.00 45 1011.7
20260503225036 57 300 2.0 10.0 0.00 0.00 0.00 45 1011.7
20260503224536 57 261 4.0 16.0 0.00 0.00 0.00 45 1011.6
20260503224036 58 327 4.0 16.0 0.00 0.00 0.00 44 1011.5
20260503223535 58 275 2.0 9.0 0.00 0.00 0.00 44 1011.6
20260503223036 59 346 3.0 12.0 0.00 0.00 0.00 44 1011.5
20260503222535 59 202 3.0 12.0 0.00 0.00 0.00 44 1011.5
20260503222036 59 152 2.0 8.0 0.00 0.00 0.00 42 1011.5
20260503221535 59 225 3.0 8.0 0.00 0.00 0.00 42 1011.5
20260503221035 59 247 3.0 8.0 0.00 0.00 0.00 43 1011.6
20260503220535 59 288 2.0 8.0 0.00 0.00 0.00 44 1011.5
20260503220043 59 250 2.0 8.0 0.00 0.00 0.00 43 1011.5
20260503215534 59 307 2.0 8.0 0.00 0.00 0.00 43 1011.5
20260503215035 59 298 2.0 12.0 0.00 0.00 0.00 43 1011.5
20260503214534 60 340 3.0 11.0 0.00 0.00 0.00 42 1011.4
20260503214038 59 88 1.0 9.0 0.00 0.00 0.00 43 1011.5
20260503213533 59 325 2.0 9.0 0.00 0.00 0.00 42 1011.5
20260503213033 59 292 3.0 8.0 0.00 0.00 0.00 42 1011.5
20260503212536 59 260 2.0 7.0 0.00 0.00 0.00 43 1011.4
20260503212035 59 313 2.0 8.0 0.00 0.00 0.00 42 1011.4
20260503211534 59 212 2.0 11.0 0.00 0.00 0.00 45 1011.5
20260503211033 59 304 3.0 11.0 0.00 0.00 0.00 44 1011.5
20260503210533 60 254 3.0 8.0 0.00 0.00 0.00 42 1011.5
20260503210032 59 190 1.0 8.0 0.00 0.00 0.00 43 1011.5
20260503205535 59 320 2.0 11.0 0.00 0.00 0.00 43 1011.4
20260503205032 59 326 2.0 13.0 0.00 0.00 0.00 43 1011.4
20260503204532 59 276 4.0 13.0 0.00 0.00 0.00 42 1011.4
20260503204032 60 340 4.0 9.0 0.00 0.00 0.00 42 1011.3
20260503203531 59 341 2.0 9.0 0.00 0.00 0.00 44 1011.4
20260503203046 59 295 4.0 9.0 0.00 0.00 0.00 43 1011.5
20260503202530 59 346 3.0 10.0 0.00 0.00 0.00 43 1011.6
20260503202030 59 277 3.0 11.0 0.00 0.00 0.00 43 1011.6
20260503201533 59 286 3.0 11.0 0.00 0.00 0.00 43 1011.6
20260503201032 59 279 5.0 11.0 0.00 0.00 0.00 42 1011.7
20260503200531 59 326 3.0 18.0 0.00 0.00 0.00 43 1011.7
20260503200030 59 333 5.0 13.0 0.00 0.00 0.00 44 1011.7
20260503195530 59 253 4.0 13.0 0.00 0.00 0.00 43 1011.8
20260503195029 59 232 4.0 19.0 0.00 0.00 0.00 44 1011.8
20260503194538 59 256 7.0 19.0 0.00 0.00 0.00 42 1011.7
20260503194029 59 286 4.0 12.0 0.00 0.00 0.00 44 1011.7
20260503193530 59 329 3.0 12.0 0.00 0.00 0.00 42 1011.8
20260503193028 59 282 3.0 8.0 0.00 0.00 0.00 43 1011.9
20260503192527 59 304 2.0 12.0 0.00 0.00 0.00 44 1011.9
20260503192027 58 337 5.0 11.0 0.00 0.00 0.00 41 1011.9
20260503191526 58 319 4.0 11.0 0.00 0.00 0.00 44 1012.0
20260503191027 57 267 5.0 12.0 0.00 0.00 0.00 44 1011.9
20260503190528 58 315 5.0 11.0 0.00 0.00 0.00 44 1011.9
20260503190036 58 336 4.0 11.0 0.00 0.00 0.00 43 1012.1
20260503185528 58 317 4.0 10.0 0.00 0.00 0.00 43 1012.2
20260503185027 58 346 4.0 15.0 0.00 0.00 0.00 43 1012.0
20260503184526 58 240 5.0 15.0 0.00 0.00 0.00 43 1011.9
20260503184023 58 273 4.0 11.0 0.00 0.00 0.00 46 1012.2
20260503183525 57 328 3.0 10.0 0.00 0.00 0.00 46 1012.4
20260503183022 56 37 5.0 13.0 0.00 0.00 0.00 45 1012.3
20260503182521 57 282 5.0 13.0 0.00 0.00 0.00 46 1012.3
20260503182020 56 203 4.0 14.0 0.00 0.00 0.00 46 1012.5
20260503181520 56 360 4.0 13.0 0.00 0.00 0.00 45 1012.4
20260503181020 56 250 3.0 13.0 0.00 0.00 0.00 47 1012.3
20260503180521 56 302 4.0 13.0 0.00 0.00 0.00 46 1012.3
20260503180019 55 324 4.0 13.0 0.00 0.00 0.00 45 1012.4
20260503175517 55 346 5.0 13.0 0.00 0.00 0.00 47 1012.5
20260503175016 53 338 4.0 13.0 0.00 0.00 0.00 49 1012.4
20260503174516 53 350 4.0 12.0 0.00 0.00 0.00 47 1012.4
20260503174016 54 311 5.0 12.0 0.00 0.00 0.00 46 1012.4
20260503173515 54 283 3.0 13.0 0.00 0.00 0.00 48 1012.6
20260503173016 54 334 5.0 13.0 0.00 0.00 0.00 47 1012.5
20260503172516 54 355 4.0 11.0 0.00 0.00 0.00 49 1012.7
20260503172014 54 300 5.0 13.0 0.00 0.00 0.00 48 1012.6
20260503171516 54 235 3.0 13.0 0.00 0.00 0.00 49 1012.8
20260503171014 53 242 4.0 10.0 0.00 0.00 0.00 48 1012.8
20260503170515 54 280 3.0 10.0 0.00 0.00 0.00 48 1012.8